Weather in Alkhasty

Russia / Republic of Ingushetia     43°11′03″N   44°59′42″E
temp.,
°C
wind,
m/s
gust,
m/s
humid.,
%
clouds,
%
prec.,
mm/h
press.,
hPa
HPBL,
m
9 may, sun
sun900:00+12ssw118534 0.1 101113
03:00+12ssw117937 0.1 100911
06:00+14ssw1171100 0.0 100816
09:00+19nnw33625 0.0 1008664
12:00+21nnw4460100 0.0 10071446
15:00+17nw5874100 0.1 1009655
18:00+8wnw81493100 3.3 1016872
21:00+5w61295100 7.4 10221045
10 may, mon
mon1000:00+5wsw5995100 4.4 1023957
03:00+5sw5894100 4.9 1023638
06:00+4sw4894100 1.6 1023627
09:00+7wsw587789 2.2 1023986
12:00+11nw455773 0.7 10211566
15:00+10nw2459100 1.3 10201352
18:00+8ssw3381100 0.4 1021351
21:00+6ssw3490100 1.1 1022182
11 may, tue
tue1100:00+4wsw229361 0.1 102122
03:00+3ssw229332 0.1 102024
06:00+5e25885 0.0 1019293
09:00+10e5667100 0.0 10181030
12:00+13ene4456100 0.0 10161344
15:00+15ne3353100 0.0 10151702
18:00+12ene4869100 0.0 1016466
21:00+7e2284100 0.0 101825
12 may, wed
wed1200:00+5s11915 0.0 101810
03:00+5sw11914 0.0 101712
06:00+7w12842 0.0 101874
09:00+13nne32660 0.0 1017717
12:00+16ene336028 0.0 10171112
15:00+18ene335843 0.0 10171239
18:00+17ene23710 0.0 1017154
21:00+11se22910 0.0 101717
13 may, thu
thu1300:00+9sse119163 0.0 101710
03:00+9s118966 0.0 101611
06:00+12s11820 0.0 101738
09:00+17ene23640 0.0 1016460
12:00+21e45575 0.0 1015798
15:00+22ene45535 0.0 1014991
18:00+20ene357219 0.0 1015172
21:00+14sse11913 0.0 101611